Regional Weather Roundup
Issued by NWS

Home | Current Version | Previous Version | Text Only | Print | Product List | Glossary On
Versions: 1 2 3 4 5 6 7 8 9 10 11 12 13 14 15 16 17 18 19 20 21 22 23 24 25 26 27 28
000
ASUS44 KJAN 221410
RWRMS

MISSISSIPPI HOURLY WEATHER ROUNDUP
NATIONAL WEATHER SERVICE JACKSON MS
900 AM CDT TUE AUG 22 2017

NOTE: "FAIR: INDICATES FEW OR NO CLOUDS BELOW 12,000 FEET WITH NO
SIGNIFICANT WEATHER AND/OR OBSTRUCTIONS TO VISIBILITY.

MSZ001>002-007>008-010>013-018>021-025>028-034>036-221500-
NORTHWEST MISSISSIPPI

CITY           SKY/WX    TMP DP  RH WIND       PRES   REMARKS
BATESVILLE     FAIR      81  74  81 SW5       30.08R
CLARKSDALE       N/A     82  81  94 W8        30.07S HX  95
CLEVELAND      FAIR      81  79  93 SW6       30.08R HX  90
GREENWOOD      SUNNY     81  75  82 SW5       30.08R
GREENVILLE     SUNNY     81  73  76 W7        30.08R
OLIVE BRANCH   MOSUNNY  N/A N/A N/A SW12      30.07R
OXFORD         FAIR      81  73  78 W6        30.10S
TUNICA           N/A     81  73  78 SW7       30.08R
WINONA         FAIR      78  75  92 SW3       30.10R
$$

MSZ003>006-009-014>017-022>024-029>033-037>039-221500-
NORTHEAST MISSISSIPPI

CITY           SKY/WX    TMP DP  RH WIND       PRES   REMARKS
COLUMBUS AFB   SUNNY     82  78  90 CALM      30.08S HX  91
STARKVILLE     FAIR      81  73  78 CALM      30.11R
TUPELO         SUNNY     83  73  72 SW5       30.08R
$$

MSZ040-058-221500-
CENTRAL MISSISSIPPI

CITY           SKY/WX    TMP DP  RH WIND       PRES   REMARKS
JACKSON INTL   SUNNY     81  72  74 S3        30.11R
JACKSON HAWKNS SUNNY     81  72  74 CALM      30.10S
MADISON        FAIR      81  70  69 CALM      30.10R
MERIDIAN KEY   SUNNY     82  75  79 CALM      30.12R
MERIDIAN NAS   MOSUNNY   81  74  79 CALM      30.12R
RAYMOND        FAIR      81  72  74 CALM      30.09S
VICKSBURG VKS  SUNNY     81  73  78 CALM      30.07F
$$

MSZ059>079-221500-
SOUTH MISSISSIPPI

CITY           SKY/WX    TMP DP  RH WIND       PRES   REMARKS
COLUMBIA       FAIR      81 N/A N/A CALM      30.13R
HATTIESBURG    SUNNY     80  75  84 CALM      30.11R
LAUREL         FAIR      80  76  88 CALM      30.11S
MCCOMB         SUNNY     80  73  79 CALM      30.11R
NATCHEZ        SUNNY     80  73  79 CALM      30.10S
PINE BELT      SUNNY     80  75  84 CALM      30.12R
$$

MSZ080>082-221500-
COASTAL MISSISSIPPI

CITY           SKY/WX    TMP DP  RH WIND       PRES   REMARKS
BILOXI         SUNNY     81  76  86 NE7       30.08R
PASCAGOULA     MOSUNNY   82  77  84 N3        30.09R HX  90
GULFPORT       SUNNY     84  76  76 NE6       30.08R HX  93
$$

LAZ007>009-015>016-023>026-221500-
NORTHEAST LOUISIANA

CITY           SKY/WX    TMP DP  RH WIND       PRES   REMARKS
BASTROP        FAIR      80  77  92 CALM      30.09R
TALLULAH/VBURG NOT AVBL
VIDALIA          N/A    N/A N/A N/A MISG      30.09R
$$




USA.gov is the U.S. government's official web portal to all federal, state and local government web resources and services.